Regional Weather Roundup
Issued by NWS Sterling, VA

Home | Current Version | Previous Version | Text Only | Print | Product List | Glossary Off
Versions: 1 2 3 4 5 6 7 8 9 10 11 12 13 14 15 16 17 18 19 20 21 22 23 24 25 26 27 28 29 30 31 32 33 34 35 36 37 38 39 40 41 42 43 44 45 46 47 48

000
ASUS41 KLWX 010010
RWRLWX

REGIONAL WEATHER ROUNDUP
NATIONAL WEATHER SERVICE BALTIMORE MD/WASHINGTON DC
800 PM EDT FRI JUL 31 2015

Note: "FAIR" indicates few or no clouds below 12,000 feet
with no significant weather and/or obstructions to visibility.
 TC=TEMPERATURE CELSIUS

 * =Non NWS site. Station does not report precipitation (e.g. rain,
    snow, etc.), thunder, or fog.

DCZ001-MDZ009-015-VAZ040>042-051-053>054-010100-
WASHINGTON METRO

CITY           SKY/WX    TMP DP  RH WIND       PRES   REMARKS
WASHINGTON NAT CLEAR     87  58  37 N7        29.86S
DULLES         CLEAR     81  63  54 SW5       29.87S
ANDREWS AFB    CLEAR     85  58  40 W3        29.86R
FT BELVOIR     CLEAR     79  67  67 CALM      29.86R
COLLEGE PARK*  CLEAR     81  63  54 CALM      29.85S
LEESBURG*      CLEAR     84  68  58 SW10      29.88S
MANASSAS*      CLEAR     82  64  54 CALM      29.87S
GAITHERSBURG*  CLEAR     79  59  50 CALM      29.90S

$$

MDZ006>007-011-014-010100-
BALTIMORE METRO

CITY           SKY/WX    TMP DP  RH WIND       PRES   REMARKS
BWI AIRPORT    CLEAR     82  61  48 CALM      29.85R
MD SCIENCE CTR   N/A     86  55  34 MISG      29.84S
MARTIN STATE   CLEAR     84  61  45 W3        29.85S
ANNAPOLIS      CLEAR     83  62  49 CALM      29.85R
FORT MEADE*    CLEAR     73  64  73 CALM      29.88S

$$

MDZ012-015-019>023-010100-
MARYLAND EASTERN SHORE

CITY           SKY/WX    TMP DP  RH WIND       PRES   REMARKS
OCEAN CITY     CLEAR     80  60  50 S3        29.86R
SALISBURY      CLEAR     79  67  66 VRB3      29.86R
BAY BRIDGE AP*   N/A     82  57  42 W3        29.85S
CAMBRIDGE*     CLEAR     79  63  57 CALM      29.86R
EASTON*        CLEAR     82  68  61 CALM      29.89R

$$

MDZ017>025-010100-
SOUTHERN MARYLAND

CITY           SKY/WX    TMP DP  RH WIND       PRES   REMARKS
PATUXENT RIVER CLEAR     79  65  62 SW6       29.86R
ST INIGOES     CLEAR     81  64  56 W6        29.86R
LEONARDTOWN*   NOT AVBL

$$

MDZ003>005-010100-
NORTH CENTRAL MARYLAND

CITY           SKY/WX    TMP DP  RH WIND       PRES   REMARKS
FREDERICK*     CLEAR     82  66  57 W5        29.88S
HAGERSTOWN APT CLEAR     84  57  39 W5        29.87S
WESTMINSTER*   NOT AVBL

$$

MDZ501>502-010100-
WESTERN MARYLAND

CITY           SKY/WX    TMP DP  RH WIND       PRES   REMARKS
OAKLAND*       CLEAR     68  68 100 SW6       30.02S
CUMBERLAND*    CLEAR     82  55  39 W6        29.93S

$$

VAZ025>031-010100-
SHENANDOAH VALLEY

CITY           SKY/WX    TMP DP  RH WIND       PRES   REMARKS
WINCHESTER*    CLEAR     86  55  35 W6        29.89S
FRONT ROYAL*   FAIR      77  66  69 CALM      29.88S
LURAY*         FAIR      84  61  45 CALM      29.91S
NEW MARKET*    FAIR      71  62  73 CALM      29.90S
STAUNTON*      PTCLDY    84  57  40 NW5       29.95R
WAYNESBORO*    FAIR      77  61  58 SW5       29.95S

$$

WVZ021-048>050-054>055-010100-
EASTERN WEST VIRGINIA PANHANDLE

CITY           SKY/WX    TMP DP  RH WIND       PRES   REMARKS
MARTINSBURG    CLEAR     82  57  42 W7        29.88S
PETERSBURG*    CLEAR    N/A N/A N/A CALM      29.93F

$$

VAZ036>039-050-010100-
CENTRAL FOOTHILLS

CITY           SKY/WX    TMP DP  RH WIND       PRES   REMARKS
CHARLOTTESVILL CLEAR     81  63  54 CALM      29.90R
CULPEPER*      CLEAR     77  69  75 CALM      29.89R
ORANGE*        CLEAR     81  70  69 CALM      29.91R
GORDONSVILLE*  FAIR      75  70  83 CALM      29.89S
WARRENTON*     FAIR      78  71  79 CALM      29.87S

$$

VAZ055>057-010100-
NORTH AND CENTRAL PIEDMONT

CITY           SKY/WX    TMP DP  RH WIND       PRES   REMARKS
FREDERICKSBRG* CLEAR     81  70  69 CALM      29.87R
STAFFORD*      CLEAR     76  70  81 CALM      29.92R

$$

NCZ024-NYZ072-PAZ021-071-VAZ022-071-010100-
OTHER REGIONAL OBSERVATIONS

CITY           SKY/WX    TMP DP  RH WIND       PRES   REMARKS
NEW YORK CITY  CLEAR     85  51  31 VRB5      29.82S
PHILADELPHIA   CLEAR     87  54  32 W9        29.83S
PITTSBURGH     PTCLDY    81  56  42 W6        29.89F
ROANOKE        PTCLDY    81  56  42 NW9       29.98R
RICHMOND       CLEAR     84  61  45 CALM      29.90R
RALEIGH        PTCLDY    84  63  49 CALM      29.93R

$$

ANZ530>537-010100-
MARINE OBSERVATIONS

STATION/POSITION TIME  TEMP    WIND        PRES
                       AIR SEA DIR/SP/G
                 (UTC) (F)     (DEG/KT/KT) (MB)
THOMAS PT LIGHT  2300   86 82  310/  8/ 10 1011.0F
BALT KEY BRIDGE  2300   87     290/  8/ 10 1010.3F
COVE POINT       2300   84     200/  3/  3 1011.3F
LEWISETTA        2300   85 84  290/  5/  6 1010.9S
SOLOMONS ISLAND  2300      83                N/A
PINEY POINT      2300          310/ 11/ 13   N/A

$$



USA.gov is the U.S. government's official web portal to all federal, state and local government web resources and services.